STARLINK-32831, 62860

Orbit data source: Space-Track

STARLINK-32831, 62860 is a payload satellite owned by SpaceX/Seattle (US) in LEO that was launched on Sat, 01 Feb 2025 UTC via an FALCON 9 launch vehicle from the Air Force Western Test Range (AFWTR). Payload-class satellites include a variety of spacecraft equipped with specific instruments for various scientific and technological missions. These include communications satellites like Starlink; space stations such as the ISS; scientific satellites like the Hubble; Earth observation satellites from companies like Planet Labs, Umbra, and HawkEye 360; GPS; miniature CubeSats for education and research; and military/defense satellites.

Loading next visibility...
Identifier
62860, 2025-022G
Orbit
LEO
Country
Flag of USUS
Related business
Manufacturer
SpaceX/Seattle
Mission
Operational spacecraft
Bus & Motor
STARLINK V2M, Unknown motor
Mass
730 kg wet, ~700 kg dry
Launch date (UTC)
2025-02-01 (9 months ago)
Launch vehicle
FALCON 9
Launch site
Air Force Western Test Range (AFWTR)
Object type
Payload
Rocket body
Debris
Shape & HBR
Unknown shape, 17.7 m
Radar Cross Section
Large (>1 m²)

Expand to show TLE details & history
Last TLE update: 8 hours ago

TLE from 8 hours ago
0 STARLINK-32831
1 62860U 25022G   25304.71163499  .00054419  00000-0  18377-2 0  9998
2 62860  53.1613   8.6608 0001246  75.2318 284.8820 15.30171572 42145
Epoch: 2025-10-31T17:04Z
TLE epoch observation values (Epoch: 2025-10-31T17:04:45.263Z)
Latitude
-0.00007°
Longitude
72.22001°
Altitude
475.981 km
Speed
7.629 km/s
True Right ascension
00h 34m 38s
True Declination
0° 00' 00"
Sunlit
Object was in full shadow at epoch
Visualization orbit readout
Latitude
Unknown
Longitude
Unknown
Altitude
Unknown
Speed
Unknown
Apparent Right ascension
Unknown
Apparent Declination
Unknown
Sunlit
N/A
Visualization observer readout
Local Sidereal Time
21:04:13
Azimuth
Unknown
Elevation
Unknown
Doppler factor
Unknown
Orbital elements
Apogee altitude
476.41 km
Perigee altitude
474.702 km
Semi-major axis
6,853.693 km
Eccentricity
0.00012
Inclination
53.1613°
RAAN
8.6608°
Arg. of periapsis
75.2318°
True anomaly
284.8682°
Mean anomaly
284.882°
Eccentric anomaly
284.8751°
Mean motion
3.82522 °/min
Orbital period
94.11 mins
BSTAR
0.0018377
Loading maneuver chart data...
Computing Atmospheric mass density...
Loading historical data...
Loading historical data...
Loading historical data...
Loading historical data...
Loading historical data...
Loading historical data...
Loading historical data...

Documentation

Showing up to 5 results
|